[[{"header":{"parameterUnit":"m.s-1","parameterCategory":1,"la1":30.2991,"la2":30.254,"lo1":-89.0895,"lo2":-89.0444,"dy":0.0017,"dx":0.0017,"nx":28,"ny":28,"refTime":"2025-07-12T03:00:00:Z","depth":0,"parameterNumber":2,"parameterNumberName":"U-component_of_WINDS"},"data":[0,0,0,0,0,0,0,0,0,0,0,0,0,0,0,0,0,0,0,0,0,0,0,0,0,0,0,0,0,0,0,0,0,0,0,0,0,0,0,0,0,0,0,0,0,0,0,0,0,0,0,0,0,0,0,0,0,0,1.3432,1.3434,0,1.3602,1.3604,1.3606,1.3667,1.3667,1.3666,1.3665,1.3843,1.3848,1.3853,0,0,0,0,0,0,0,0,0,0,0,0,0,1.3162,1.3166,1.3432,1.3434,1.3436,1.3602,1.3604,1.3606,1.3667,1.3667,1.3666,1.3665,1.3841,1.3848,1.3854,0,0,0,0,0,0,0,0,0,0,0,0,0,1.33,1.3168,1.3431,1.3486,1.3493,1.3601,1.3604,1.3607,1.3667,1.3667,1.3666,1.3665,1.3839,1.3847,1.3855,1.3922,0,0,1.3879,1.3882,0,0,0,0,0,0,0,0,1.3292,1.331,1.3476,1.3483,1.349,1.3612,1.3574,1.3713,1.3668,1.3601,1.3665,1.3664,1.3767,1.3781,1.3815,1.393,1.3938,1.388,1.3885,1.3888,1.389,0,0,0,0,0,0,0,1.3283,1.3303,1.3499,1.3478,1.3487,1.3503,1.3522,1.3601,1.3687,1.3607,1.3612,1.3631,1.3771,1.3807,1.382,1.394,1.388,1.3887,1.3891,1.3895,1.4119,1.412,0,0,0,0,0,0,1.3263,1.3295,1.3494,1.3504,1.3387,1.3509,1.353,1.3574,1.3687,1.3703,1.3632,1.3633,1.3794,1.381,1.3826,1.3912,1.3888,1.3895,1.39,1.4117,1.4119,1.412,0,0,0,0,0,0,1.3257,1.3281,1.3487,1.3401,1.3428,1.3514,1.3564,1.3578,1.3614,1.3705,1.3721,1.3652,1.3794,1.3815,1.3897,1.3919,1.3899,1.3906,1.4116,1.4118,1.412,1.4083,0,0,0,0,0,0,1.3249,1.3278,1.3304,1.3401,1.3433,1.3554,1.3565,1.3582,1.3627,1.3631,1.3729,1.3744,1.3795,1.3885,1.3905,1.3929,1.3912,1.4115,1.4117,1.4119,1.4083,1.4083,1.4084,0,0,0,0,0,1.324,1.3288,1.3305,1.3329,1.3467,1.3555,1.3573,1.363,1.3629,1.3656,1.3714,1.3741,1.3913,1.3893,1.3916,1.3943,1.4113,1.4116,1.4119,1.4083,1.4083,1.4084,0,0,0,0,0,0,1.3192,1.3301,1.3322,1.3403,1.3469,1.3565,1.3601,1.3629,1.3698,1.3698,1.3766,1.3788,1.3865,1.3912,1.3888,1.4013,1.4015,1.4022,1.3979,1.3981,1.3981,1.3968,1.3919,0,0,0,0,0,1.3191,1.3253,1.3345,1.3408,1.344,1.3514,1.3555,1.3593,1.3665,1.3694,1.3758,1.3828,1.3897,1.3942,1.4011,1.409,1.4112,1.412,1.412,1.412,1.4126,1.4171,1.4175,1.4129,1.4129,1.4129,0,0,1.3189,1.3257,1.3292,1.34,1.3456,1.3519,1.3538,1.3604,1.3652,1.3704,1.3785,1.3835,1.3917,1.3997,1.4036,1.404,1.4144,1.4124,1.4123,1.4129,1.4174,1.4178,1.4182,1.4131,1.4131,1.413,0,0,1.3219,1.3276,1.3334,1.3389,1.3473,1.3522,1.3536,1.3628,1.3663,1.3745,1.3785,1.3843,1.3962,1.4019,1.4063,1.4113,1.414,1.4133,1.4137,1.4179,1.4183,1.4186,1.4204,1.4209,1.4139,1.4139,1.4139,0,1.3206,1.3303,1.336,1.3424,1.3471,1.3519,1.3578,1.363,1.3732,1.3763,1.3765,1.3914,1.3973,1.4067,1.4079,1.4114,1.4132,1.4123,1.4178,1.4182,1.4186,1.4203,1.421,1.4137,1.4137,1.4138,1.4138,0,1.3283,1.3349,1.3386,1.3482,1.3533,1.3594,1.3662,1.3706,1.3739,1.3788,1.3871,1.3943,1.4027,1.4052,1.4086,1.4151,1.4151,1.4164,1.4167,1.4188,1.4205,1.4212,1.4135,1.4136,1.4136,1.4136,0,0,1.3288,1.3414,1.3427,1.3471,1.3567,1.3619,1.3683,1.3764,1.3801,1.387,1.3925,1.4023,1.4036,1.4086,1.4127,1.4164,1.4198,1.4173,1.4176,1.4175,1.4274,1.4263,1.427,1.4217,1.4218,1.422,1.4267,0,1.333,1.3444,1.3498,1.3589,1.365,1.3697,1.3753,1.3817,1.3865,1.3925,1.3978,1.4046,1.4058,1.4088,1.4128,1.4185,1.4219,1.4183,1.4269,1.4272,1.4247,1.4279,1.4268,1.431,1.4275,1.4276,1.4277,0,1.3394,1.3461,1.3558,1.3645,1.3673,1.3722,1.38,1.3857,1.3931,1.3963,1.4019,1.4057,1.4126,1.4124,1.422,1.4194,1.4233,1.4266,1.4269,1.428,1.4275,1.429,1.4325,1.433,1.4288,1.4287,1.4286,0,1.3386,1.3502,1.3574,1.3611,1.3715,1.3748,1.3793,1.3867,1.3912,1.3981,1.4011,1.4087,1.4129,1.4187,1.4245,1.4238,1.4336,1.4338,1.4364,1.4363,1.4383,1.4381,1.4424,1.4408,1.4408,1.4408,1.4407,0,1.3427,1.3485,1.3572,1.3617,1.3683,1.3744,1.3807,1.3856,1.3921,1.3977,1.4022,1.4073,1.4147,1.4207,1.4254,1.4326,1.4345,1.4373,1.4384,1.4369,1.4365,1.4395,1.4393,1.4409,1.4409,1.4409,1.4408,0,1.3431,1.3492,1.3574,1.3665,1.369,1.3734,1.3813,1.3858,1.3907,1.3977,1.3997,1.4074,1.4148,1.4211,1.4309,1.434,1.4414,1.4429,1.4389,1.4395,1.4417,1.4414,1.448,1.4492,1.4468,1.4468,1.4468,0,1.3452,1.3497,1.3593,1.3633,1.3677,1.3741,1.3787,1.3849,1.3895,1.3983,1.4017,1.4094,1.4158,1.4274,1.4339,1.4414,1.443,1.4448,1.4442,1.4424,1.443,1.4427,1.4431,1.4448,1.4448,1.4448,1.4448,0,1.3484,1.3512,1.3576,1.3651,1.3704,1.3766,1.3829,1.3859,1.3933,1.3982,1.4057,1.4107,1.4206,1.4281,1.4363,1.441,1.4442,1.445,1.446,1.4444,1.4419,1.4432,1.4389,1.4448,1.4448,1.4448,1.4448,1.4448,1.3498,1.354,1.3613,1.3683,1.3737,1.3795,1.3841,1.3896,1.3959,1.4043,1.4076,1.4153,1.4226,1.4339,1.4386,1.4447,1.4453,1.4467,1.4471,1.4473,1.447,1.4409,1.4463,1.4463,1.4463,1.4463,1.4463,0,1.3532,1.3581,1.3645,1.3731,1.3786,1.3809,1.388,1.3925,1.3991,1.4056,1.4118,1.4204,1.4277,1.4348,1.4425,1.446,1.4477,1.4479,1.4477,1.4487,1.4462,1.4445,1.4464,1.4464,1.4464,1.4464,1.4464,1.4464,1.3556,1.3628,1.3664,1.3763,1.3813,1.3887,1.3926,1.3979,1.4032,1.4125,1.4186,1.4231,1.4299,1.4381,1.4449,1.4468,1.4494,1.4492,1.4515,1.449,1.4489,1.4488,1.4473,1.4497,1.4497,1.4535,1.4535,1.4536]},{"header":{"parameterUnit":"m.s-1","parameterCategory":1,"la1":30.2991,"la2":30.254,"lo1":-89.0895,"lo2":-89.0444,"dy":0.0017,"dx":0.0017,"nx":28,"ny":28,"refTime":"2025-07-12T03:00:00:Z","depth":0,"parameterNumber":3,"parameterNumberName":"V-component_of_WINDS"},"data":[0,0,0,0,0,0,0,0,0,0,0,0,0,0,0,0,0,0,0,0,0,0,0,0,0,0,0,0,0,0,0,0,0,0,0,0,0,0,0,0,0,0,0,0,0,0,0,0,0,0,0,0,0,0,0,0,0,0,3.7905,3.7904,0,3.7867,3.7867,3.7867,3.7861,3.7862,3.7862,3.7862,3.7818,3.7817,3.7815,0,0,0,0,0,0,0,0,0,0,0,0,0,3.7966,3.7965,3.7905,3.7904,3.7904,3.7868,3.7867,3.7866,3.7861,3.7862,3.7862,3.7863,3.7819,3.7817,3.7815,0,0,0,0,0,0,0,0,0,0,0,0,0,3.7935,3.7964,3.7905,3.7897,3.7896,3.7868,3.7867,3.7866,3.7861,3.7862,3.7862,3.7863,3.7819,3.7817,3.7815,3.779,0,0,3.7808,3.7807,0,0,0,0,0,0,0,0,3.7937,3.7932,3.7899,3.7897,3.7896,3.787,3.7872,3.7841,3.7861,3.7874,3.7862,3.7863,3.7834,3.7831,3.7823,3.7788,3.7786,3.7808,3.7806,3.7805,3.7805,0,0,0,0,0,0,0,3.7939,3.7934,3.789,3.7898,3.7897,3.7893,3.789,3.7866,3.7851,3.7873,3.7873,3.7869,3.7834,3.7825,3.7822,3.7785,3.7808,3.7806,3.7804,3.7803,3.7727,3.7727,0,0,0,0,0,0,3.7943,3.7936,3.7891,3.7889,3.7918,3.7892,3.7888,3.7878,3.7852,3.7849,3.7868,3.7868,3.7828,3.7824,3.782,3.7789,3.7805,3.7803,3.7802,3.7728,3.7727,3.7727,0,0,0,0,0,0,3.7944,3.7939,3.7892,3.7912,3.7906,3.789,3.7879,3.7877,3.7868,3.7848,3.7845,3.7862,3.7829,3.7823,3.7798,3.7787,3.7802,3.78,3.7729,3.7728,3.7727,3.7727,0,0,0,0,0,0,3.7946,3.794,3.7931,3.7912,3.7905,3.7873,3.7878,3.7875,3.7864,3.7864,3.7842,3.7838,3.7829,3.7801,3.7795,3.7784,3.7798,3.773,3.7728,3.7727,3.7727,3.7726,3.7724,0,0,0,0,0,3.7948,3.7932,3.7931,3.7926,3.7895,3.7872,3.7868,3.7859,3.7864,3.7854,3.7842,3.7839,3.7789,3.7799,3.7792,3.778,3.773,3.7729,3.7727,3.7728,3.7726,3.7724,0,0,0,0,0,0,3.7948,3.7929,3.7928,3.7905,3.7891,3.7871,3.7859,3.7857,3.7839,3.784,3.7828,3.7823,3.7798,3.7786,3.7797,3.7754,3.776,3.7757,3.7763,3.7761,3.7759,3.7762,3.7796,0,0,0,0,0,3.7946,3.7931,3.7914,3.7895,3.7888,3.7875,3.7865,3.7859,3.7843,3.7836,3.7822,3.7804,3.7785,3.7772,3.7753,3.7726,3.772,3.7714,3.7713,3.7711,3.7709,3.7693,3.769,3.7722,3.7722,3.7722,0,0,3.794,3.7927,3.7918,3.7895,3.7883,3.7866,3.787,3.7852,3.7838,3.7833,3.7809,3.7797,3.7777,3.775,3.7738,3.774,3.7699,3.771,3.7709,3.7707,3.7691,3.7688,3.7685,3.7721,3.7721,3.7721,0,0,3.792,3.791,3.7893,3.7882,3.7864,3.7856,3.7852,3.7833,3.7826,3.7802,3.7797,3.778,3.7747,3.7733,3.7721,3.7696,3.7692,3.769,3.7681,3.7666,3.7663,3.7661,3.7651,3.7648,3.7688,3.7688,3.7688,0,3.7915,3.7891,3.7884,3.7867,3.7856,3.7852,3.7834,3.7822,3.7799,3.779,3.7794,3.7752,3.7738,3.7708,3.7702,3.7693,3.7686,3.7692,3.7665,3.7662,3.766,3.765,3.7647,3.7688,3.7688,3.7688,3.7688,0,3.7885,3.7868,3.7856,3.7836,3.7824,3.7806,3.7794,3.7782,3.7778,3.7769,3.7743,3.7726,3.7704,3.7696,3.7691,3.7665,3.7667,3.7667,3.7673,3.7657,3.7648,3.7644,3.7687,3.7687,3.7687,3.7687,0,0,3.7863,3.784,3.7836,3.7827,3.7807,3.7793,3.7774,3.7754,3.7744,3.7728,3.7711,3.7683,3.7684,3.767,3.7663,3.765,3.763,3.7652,3.7651,3.7648,3.7599,3.7599,3.7595,3.7628,3.7627,3.7627,3.7601,0,3.7842,3.7811,3.7804,3.7776,3.776,3.7756,3.7739,3.7725,3.7715,3.7699,3.7687,3.7668,3.7671,3.7662,3.7649,3.7636,3.762,3.7637,3.761,3.7609,3.7615,3.759,3.7589,3.7566,3.7597,3.7597,3.7596,0,3.7812,3.7797,3.7768,3.7751,3.7744,3.773,3.771,3.7695,3.7678,3.7672,3.7657,3.7652,3.763,3.7637,3.7606,3.7618,3.7606,3.7598,3.7597,3.7593,3.7602,3.7585,3.7558,3.7554,3.7591,3.7591,3.7592,0,3.7799,3.7771,3.7751,3.7743,3.7722,3.7712,3.7703,3.7686,3.7674,3.7657,3.7649,3.7628,3.7616,3.76,3.7588,3.7594,3.7558,3.7564,3.755,3.7551,3.7542,3.7543,3.7512,3.7536,3.7536,3.7536,3.7536,0,3.7775,3.7757,3.7745,3.7732,3.7711,3.7703,3.7682,3.7672,3.7658,3.7641,3.7636,3.762,3.7606,3.7588,3.7579,3.7554,3.7549,3.7542,3.7539,3.7542,3.7543,3.7534,3.7535,3.7535,3.7535,3.7535,3.7536,0,3.7756,3.7748,3.7725,3.7708,3.7703,3.7688,3.7673,3.7659,3.765,3.7629,3.7624,3.7608,3.7587,3.7574,3.7546,3.7539,3.7512,3.751,3.7518,3.7517,3.7504,3.7505,3.7466,3.746,3.7488,3.7488,3.7488,0,3.7741,3.7728,3.771,3.77,3.7691,3.7674,3.7663,3.7653,3.7641,3.7621,3.7609,3.7588,3.757,3.7535,3.752,3.7498,3.7496,3.7483,3.7492,3.7495,3.7495,3.7495,3.7494,3.7482,3.7481,3.7481,3.7481,0,3.7715,3.7712,3.7697,3.768,3.7667,3.7652,3.7638,3.7629,3.7617,3.7603,3.7582,3.7569,3.7541,3.7519,3.7497,3.7484,3.748,3.7479,3.7474,3.7477,3.7482,3.7478,3.7514,3.7479,3.748,3.748,3.748,3.748,3.7698,3.7686,3.7671,3.7654,3.7643,3.763,3.7616,3.7606,3.7589,3.7567,3.7562,3.754,3.7521,3.7491,3.7478,3.7459,3.7461,3.7455,3.7453,3.7451,3.7451,3.7486,3.7455,3.7455,3.7455,3.7455,3.7455,0,3.7671,3.7662,3.7647,3.7628,3.7614,3.7613,3.7597,3.7585,3.7566,3.7551,3.7534,3.7509,3.7488,3.7472,3.7449,3.7437,3.7434,3.7431,3.7432,3.7429,3.7451,3.7457,3.7434,3.7434,3.7434,3.7434,3.7434,3.7434,3.7656,3.7635,3.763,3.7603,3.7593,3.7573,3.7564,3.7551,3.7538,3.7512,3.7495,3.7485,3.7469,3.7445,3.7425,3.7421,3.7412,3.741,3.7405,3.7425,3.7427,3.743,3.7435,3.7408,3.7408,3.7384,3.7384,3.7384]}]]